Simultaneous Nadir Overpasses (SNOs) Predictions

Prediction of SNOs between LANDSAT-8 and NPP Satellite Orbit:

Table of predicted SNOs for the next 14.0 days since TLE Epoch: 10/5/2024
Index Date (LANDSAT-8) Time (LANDSAT-8) Lat,Lon (LANDSAT-8) SZA (LANDSAT-8 ) Date (NPP) Time (NPP) Lat,Lon (NPP) SZA (NPP ) Distance(km) Time Diff (sec)
1 10/05/2024 14:41:37 -70.73, 136.92 104.31 10/05/2024 14:40:28 -70.78, 135.10 104.24 67.13 69
2 10/05/2024 15:31:15 70.03, -56.46 75.01 10/05/2024 15:31:00 70.05, -56.44 75.04 2.68 15
3 10/05/2024 16:20:44 -69.97, 111.09 105.04 10/05/2024 16:21:42 -69.96, 111.02 105.05 2.82 58
4 10/08/2024 06:58:16 -70.11,-108.10 103.90 10/08/2024 06:57:03 -70.14,-108.08 103.87 3.19 73
5 10/08/2024 07:47:43 70.00, 59.39 76.01 10/08/2024 07:47:46 69.99, 59.46 75.99 3.28 3
6 10/08/2024 08:37:13 -69.84,-133.21 104.15 10/08/2024 08:38:26 -69.84,-133.00 104.15 8.12 73
7 10/10/2024 23:14:40 -70.12, 7.81 102.88 10/10/2024 23:13:48 -70.11, 7.77 102.89 1.80 52
8 10/11/2024 00:04:07 70.01, 175.30 77.03 10/11/2024 00:04:32 70.01, 175.23 77.03 2.67 25
9 10/11/2024 00:53:52 -69.07, -18.34 103.90 10/11/2024 00:54:58 -69.07, -16.09 103.90 89.39 66
10 10/13/2024 15:31:04 -70.05, 123.62 101.95 10/13/2024 15:30:33 -70.07, 123.65 101.93 2.42 31
11 10/13/2024 16:20:30 69.99, -68.83 78.01 10/13/2024 16:21:17 69.97, -68.90 77.99 3.25 47
12 10/16/2024 06:57:52 70.28, 72.23 79.26 10/16/2024 06:56:40 70.37, 71.67 79.36 23.44 72
13 10/16/2024 07:47:25 -70.00,-120.53 101.01 10/16/2024 07:47:17 -70.01,-120.45 101.00 2.95 8
14 10/16/2024 08:36:51 69.94, 47.03 78.95 10/16/2024 08:38:01 69.92, 47.00 78.93 2.61 70
15 10/18/2024 23:14:13 70.09,-172.10 80.05 10/18/2024 23:13:19 70.09,-172.07 80.05 1.27 54
16 10/19/2024 00:03:43 -69.99, -4.62 100.05 10/19/2024 00:04:01 -69.99, -4.61 100.04 0.63 18
17 10/19/2024 00:53:23 69.09, 161.81 79.07 10/19/2024 00:54:29 69.10, 163.99 79.09 86.60 66



Historial Predications of SNOs between LANDSAT-8 and NPP
